Flag for Greece Weather past 2 weeks in Alexandroupoli, Greece

Now
84 °F

Sunny.


Feels Like: 88 °F
Forecast: 73 / 90 °F
Wind: 17 mph from Northeast

Location: Alexandroupoli Airport

Current Time: Jul 31, 2015 at 11:04:10 AM

Latest Report: Jul 31, 2015 at 10:20 AM


Visibility: 10 mi

Pressure: 29.74 "Hg

Humidity: 62%

Dew point: 70 °F

Location of AlexandroupoliLocation

Historic Weather in Alexandroupoli — Graph

°F

Alexandroupoli temperature yesterday

Maximum temperature yesterday: 102 °F (at 3:20 PM)
Minimum temperature yesterday: 75 °F (at 7:20 AM)
Average temperature yesterday: 90 °F

Past Weeks' High & Low Weather Summary

 TemperatureHumidityPressure
High102 °F (Jul 30, 3:20 PM)94% (Jul 24, 6:50 AM)30.07 "Hg (Jul 24, 6:50 AM)
Low68 °F (Jul 24, 6:50 AM)20% (Jul 20, 3:50 PM)29.65 "Hg (Jul 27, 4:50 PM)
Average85 °F47%29.83 "Hg
* Reported Jul 16 9:20 AM — Jul 31 9:50 AM, Alexandroupoli, Weather by CustomWeather, © 2015

Note: Actual official high and low records may vary slightly from our data, if they occured in-between our weather recording intervals... More about our weather records

Advertising

Alexandroupoli weather history for previous 24 hours

 ConditionsComfort  
Time TempWeatherWind HumidityBarometerVisibility
9:50 AM
Fri, Jul 31
82 °FSunny.17 mph66%29.74 "Hg10 mi
9:20 AM82 °FSunny.15 mph66%29.71 "Hg10 mi
8:50 AM81 °FSunny.15 mph70%29.71 "Hg10 mi
8:20 AM79 °FSunny.14 mph79%29.71 "Hg10 mi
11:50 PM
Thu, Jul 30
82 °FClear.6 mph58%29.68 "Hg10 mi
11:20 PM81 °FClear.6 mph62%29.68 "Hg10 mi
10:50 PM82 °FClear.3 mph58%29.68 "Hg10 mi
10:20 PM84 °FClear.No wind55%29.68 "Hg10 mi
9:50 PM84 °FClear.No wind55%29.68 "Hg10 mi
9:20 PM86 °FSunny.No wind55%29.68 "Hg10 mi
8:50 PM86 °FSunny.No wind55%29.68 "Hg10 mi
8:20 PM88 °FSunny.5 mph52%29.68 "Hg10 mi
7:50 PM90 °FSunny.5 mph49%29.68 "Hg10 mi
7:20 PM90 °FSunny.6 mph49%29.65 "Hg10 mi
6:50 PM90 °FSunny.8 mph49%29.65 "Hg10 mi
6:20 PM91 °FSunny.8 mph49%29.65 "Hg10 mi
5:50 PM91 °FSunny.8 mph49%29.65 "Hg10 mi
5:20 PM91 °FSunny.8 mph38%29.65 "Hg10 mi
4:50 PM91 °FSunny.9 mph36%29.68 "Hg10 mi
4:20 PM95 °FSunny.12 mph32%29.68 "Hg10 mi
3:50 PM102 °FSunny.8 mph20%29.68 "Hg10 mi
3:20 PM102 °FSunny.12 mph20%29.68 "Hg10 mi
2:50 PM100 °FSunny.15 mph20%29.68 "Hg10 mi
2:20 PM100 °FSunny.15 mph20%29.71 "Hg10 mi
1:50 PM100 °FSunny.15 mph20%29.71 "Hg10 mi
1:20 PM99 °FSunny.10 mph21%29.71 "Hg10 mi
12:50 PM99 °FSunny.10 mph21%29.71 "Hg10 mi
12:20 PM97 °FSunny.14 mph39%29.71 "Hg10 mi
11:50 AM95 °FSunny.14 mph41%29.71 "Hg10 mi
11:20 AM91 °FSunny.9 mph46%29.71 "Hg10 mi
Weather by CustomWeather, © 2015

See weather overviewHow to use our weather pages